Date,TemperatureHighF,TemperatureAvgF,TemperatureLowF,DewpointHighF,DewpointAvgF,DewpointLowF,HumidityHigh,HumidityAvg,HumidityLow,PressureMaxIn,PressureMinIn,WindSpeedMaxMPH,WindSpeedAvgMPH,GustSpeedMaxMPH,PrecipitationSumIn
2013-2-1,69.1,52.5,44.8,51.6,44.6,40.7,94,76,45,30.25,30.12,18,4,19,0.00
2013-2-2,58.7,48.8,43.2,50.7,45.9,42.1,97,90,75,30.30,30.22,7,1,16,0.00
2013-2-3,56.9,49.3,44.6,47.7,45.4,42.1,97,87,68,30.27,30.15,11,2,142,0.00
2013-2-4,64.3,48.8,40.2,51.0,44.5,38.6,96,86,53,30.19,30.08,12,2,16,0.00
2013-2-5,52.6,47.9,43.9,47.2,45.3,41.4,96,91,78,30.16,30.08,7,1,11,0.01
2013-2-6,57.6,48.4,41.1,46.4,43.4,39.1,94,84,65,30.22,30.14,10,2,12,0.01
2013-2-7,54.1,46.9,40.8,47.1,41.1,37.0,93,81,67,30.20,30.04,13,2,17,0.03
2013-2-8,53.1,44.8,40.9,43.5,39.0,35.5,96,81,53,30.03,29.96,6,1,13,0.08
2013-2-9,54.8,44.6,36.2,40.5,37.4,32.5,94,78,46,30.12,30.01,11,2,14,0.00
2013-2-10,57.3,45.2,35.0,44.2,37.5,30.9,93,76,43,30.14,30.03,10,2,13,0.00
2013-2-11,61.6,47.9,38.2,42.7,38.3,33.0,94,72,35,30.25,30.08,9,2,14,0.01
2013-2-12,60.7,47.3,37.6,46.0,40.5,35.7,94,79,42,30.37,30.26,10,2,12,0.01
2013-2-13,62.1,48.6,39.8,48.5,42.6,36.5,94,81,54,30.35,30.24,8,2,12,0.00
2013-2-14,70.1,55.6,40.8,46.8,42.1,38.0,94,64,37,30.24,30.14,10,4,17,0.00
2013-2-15,76.5,59.9,46.7,45.1,40.8,32.8,75,53,21,30.26,30.20,12,3,16,0.00
2013-2-16,73.9,57.2,45.1,46.9,41.8,35.2,92,59,25,30.23,30.06,12,3,14,0.00
2013-2-17,57.8,49.3,45.1,48.4,45.7,42.9,97,88,69,30.08,29.99,11,2,13,0.00
2013-2-18,52.5,47.2,43.9,47.2,43.0,38.8,97,86,68,30.08,30.01,12,3,16,0.01
2013-2-19,48.5,43.2,36.2,44.3,39.1,33.5,93,86,76,30.01,29.79,17,2,24,0.30
2013-2-20,56.3,44.9,34.1,42.9,37.8,31.7,93,78,52,30.09,29.85,8,2,12,0.01
2013-2-21,59.3,48.1,40.1,45.6,39.8,37.0,94,75,44,30.20,30.07,10,2,13,0.00
2013-2-22,59.9,48.7,37.6,44.9,40.1,32.9,90,73,45,30.28,30.19,10,2,13,0.00
2013-2-23,61.0,51.0,44.1,46.5,40.0,32.7,94,69,35,30.27,30.14,12,2,17,0.00
2013-2-24,61.2,50.2,40.5,40.5,33.3,25.9,83,55,27,30.27,30.16,12,3,14,0.00
2013-2-25,60.7,48.1,37.6,47.2,37.9,29.9,93,70,38,30.30,30.18,11,2,13,0.00
2013-2-26,65.8,51.3,40.6,42.2,39.4,35.0,94,68,34,30.22,30.12,12,3,17,0.01
2013-2-27,67.3,51.9,41.9,46.3,38.1,29.5,92,62,29,30.39,30.22,11,3,16,0.00
2013-2-28,66.4,54.0,43.8,51.6,45.9,38.3,93,76,53,30.46,30.38,10,2,16,0.00